Location: Dannhausen
(51.8650°N, 10.1026°E)
Time: 18:22:55
(UTC+00:00)

Cosmos 2151 - Pass Details

Date: 09 April 2020
Orbit: 582 x 600 km, 82.5° (Epoch: 01 June)

Event Time Altitude Azimuth Distance (km) Brightness Sun altitude
Rises 19:23:25 0° 359° (N) 2,820 6.9 -11.7°
Reaches altitude 10° 19:26:05 10° 16° (NNE) 1,915 5.8 -12.0°
Maximum altitude 19:29:18 21° 66° (ENE) 1,341 4.5 -12.5°
Enters shadow 19:30:56 17° 96° (E) 1,507 4.5 -12.7°
